This is the latest recevied weather packets stored in our database for station/object OE2WNL. If no packets are shown the sender has not sent any weather packets the latest 10 day(s).
| Time | Temp. | Humidity | Pressure | Rain* | Wind** | Luminosity | Snow |
|---|---|---|---|---|---|---|---|
| 1788521259 | 26.67° C | 37% | 1016.3 hPa | 0 mm | - | - | - |
| 1788520949 | 26.11° C | 40% | 1016.8 hPa | 0 mm | - | - | - |
| 1788520639 | 25.56° C | 39% | 1016.8 hPa | 0 mm | - | - | - |
| 1788520339 | 25.56° C | 41% | 1017.1 hPa | 0 mm | - | - | - |
| 1788520039 | 25.56° C | 41% | 1016.9 hPa | 0 mm | - | - | - |
| 1788519739 | 25.56° C | 39% | 1017.2 hPa | 0 mm | - | - | - |
| 1788519439 | 25.56° C | 39% | 1017.2 hPa | 0 mm | - | - | - |
| 1788519139 | 25.56° C | 39% | 1017.1 hPa | 0 mm | - | - | - |
| 1788518829 | 25° C | 40% | 1017.3 hPa | 0 mm | - | - | - |
| 1788518529 | 24.44° C | 38% | 1017.7 hPa | 0 mm | - | - | - |
| 1788518229 | 24.44° C | 41% | 1017.5 hPa | 0 mm | - | - | - |
| 1788517929 | 25.56° C | 40% | 1017.8 hPa | 0 mm | - | - | - |
| 1788517629 | 25° C | 41% | 1017.9 hPa | 0 mm | - | - | - |
| 1788517319 | 24.44° C | 42% | 1018 hPa | 0 mm | - | - | - |
| 1788517019 | 24.44° C | 40% | 1017.9 hPa | 0 mm | - | - | - |
| 1788516709 | 23.89° C | 42% | 1018.1 hPa | 0 mm | - | - | - |
| 1788516409 | 23.33° C | 43% | 1018.3 hPa | 0 mm | - | - | - |
| 1788516100 | 22.78° C | 47% | 1018.4 hPa | 0 mm | - | - | - |
| 1788515790 | 22.78° C | 45% | 1018.5 hPa | 0 mm | - | - | - |
| 1788515490 | 23.33° C | 45% | 1018.6 hPa | 0 mm | - | - | - |
| 1788515189 | 22.78° C | 44% | 1018.8 hPa | 0 mm | - | - | - |
| 1788514880 | 22.78° C | 46% | 1018.9 hPa | 0 mm | - | - | - |
| 1788514579 | 22.78° C | 48% | 1019.2 hPa | 0 mm | - | - | - |
| 1788514269 | 22.22° C | 48% | 1019 hPa | 0 mm | - | - | - |
| 1788514249 | 22.22° C | 48% | 1019 hPa | 0 mm | - | - | - |
* Rain latest hour (hover to see other rain measurements)
** Current wind speed in m/s (hover to see current wind gust speed)